星链-31815 (STARLINK-31815 )

导读

STARLINK-31815是美国SpaceX星链星座的一员,于2024年5月18日发射入轨,延续星链“全球高速互联网覆盖”布局,服务偏远地区联网、海事航空连接等场景。它继承了星链批量发射、低轨部署的技术特点,进一步完善星座规模,提升覆盖密度与网络容量,推动全球卫星互联网服务落地。

Basic Information
目录编号:
59801
目录名称:
STARLINK-31815
国际标识:
2024-093V
轨道中心:
EARTH
卫星名称:
星链-31815
卫星全名:
星链-31815 (STARLINK-31815 )
卫星状态:
在轨 (已飞行761 天)
发射日期:
2024-05-18 UTC
国别 :
美国 (US)
星等 :
--
Orbit Information
数据来源 国际轨道数据 AOE轨道数据
星历时间 2026-06-16T14:59:43+0800
1天前
查看轨道信息
2026-06-16T12:00:00+0800
1天前
查看轨道信息
半长轴 6861.205km 6861.18km
偏心率 0.0000964 0.0003163
轨道倾角 43.007° 42.993°
近地点辐角 291.062° 275.125°
升交点赤经 12.190° 12.892°
平近点角 69.013° 117.883°
近地点 482.406km 480.872km
远地点 483.73km 485.214km
周期 94.267分钟 94.267分钟
每日圈数 15.275738 15.275822
Detailed Information
固有亮度:
5
最大亮度:
1.5
卫星平台:
Starlink v2.0 mini
覆盖范围:
全球
运营商:
太空探索技术公司
运营商所在国:
美国
制造商(研发单位):
太空探索技术公司
制造商所在国:
美国
使用方式:
暂无
Satellite Introduction
星链(Starlink)计划是由太空探索技术公司(SpaceX)提出的一个巨型低轨卫星互联网星座项目,计划在2019年至2024年间在太空搭建由约1.2万颗卫星组成的“星链”网络,其中1584颗将部署在地球上空550千米处的近地轨道,并从2020年开始工作。该卫星仍在工作。
2D Orbit Map
3D Orbit Map
Orbit Altitude Analysis Chart
Orbit Inclination Analysis Chart
Orbit Comprehensive Analysis Chart
View Comprehensive Chart